Showing default

NIMBUS 2, 2173

Orbit data source: Space-Track

NIMBUS 2, 2173 is a payload satellite owned by GSFC (US) in SSO that was launched on Sun, 15 May 1966 UTC via a THOR SLV-2A AGENA B launch vehicle from the Air Force Western Test Range (AFWTR). Payload-class satellites include a variety of spacecraft equipped with specific instruments for various scientific and technological missions. These include communications satellites like Starlink; space stations such as the ISS; scientific satellites like the Hubble; Earth observation satellites from companies like Planet Labs, Umbra, and HawkEye 360; GPS; miniature CubeSats for education and research; and military/defense satellites.

Loading next visibility...
Identifier
2173, 1966-040A
Orbit
SSO
Country
Flag of USUS
Related business
Manufacturer
GE/MSVD
Mission
Non-operational Civil Weather
Bus & Motor
NIMBUS, Unknown motor
Mass
414 kg wet, 414 kg dry
Launch date (UTC)
1966-05-15 (59 years ago)
Launch vehicle
THOR SLV-2A AGENA B
Launch site
Air Force Western Test Range (AFWTR)
Object type
Payload
Rocket body
Debris
Shape & HBR
Cone + 2 Pan, 1.7 m
Radar Cross Section
2.947 m², Large (>1 m²)

Expand to show TLE details & history
Last TLE update: 1 day ago

TLE from 1 day ago
0 NIMBUS 2
1 02173U 66040A   25260.06070502 -.00000016  00000-0  63760-4 0  9998
2 02173 100.5614 105.8626 0054883 216.2231 298.6622 13.33702100887216
Epoch: 2025-09-17T01:27Z
TLE epoch observation values (Epoch: 2025-09-17T01:27:24.913Z)
Latitude
25.23317°
Longitude
-87.21819°
Altitude
1,116.125 km
Speed
7.306 km/s
True Right ascension
19h 23m 30s
True Declination
25° 06' 26"
Sunlit
Object was in daylight at epoch
Visualization orbit readout
Latitude
Unknown
Longitude
Unknown
Altitude
Unknown
Speed
Unknown
Apparent Right ascension
Unknown
Apparent Declination
Unknown
Sunlit
N/A
Visualization observer readout
Local Sidereal Time
19:10:14
Azimuth
Unknown
Elevation
Unknown
Doppler factor
Unknown
Orbital elements
Apogee altitude
1,171.409 km
Perigee altitude
1,088.993 km
Semi-major axis
7,508.338 km
Eccentricity
0.00549
Inclination
100.5614°
RAAN
105.8626°
Arg. of periapsis
216.2231°
True anomaly
298.10854°
Mean anomaly
298.6622°
Eccentric anomaly
298.38555°
Mean motion
3.33601 °/min
Orbital period
107.91 mins
BSTAR
0.00006376
Loading maneuver chart data...
Computing Atmospheric mass density...
Loading historical data...
Loading historical data...
Loading historical data...
Loading historical data...
Loading historical data...
Loading historical data...
Loading historical data...

Documentation

Showing up to 5 results
|